Toledo Metcalf, OH

7:31 AM EDT on March 23, 2017 (GMT -0400)
Metcalf

Weather History for KTDZ - November, 2012

Change the Weather History Date:

Thursday, November 22, 2012

  Actual Average (KTOL) Record (KTOL)
Temperature  
Mean Temperature 48 °F -  
Max Temperature 62 °F 44 °F 72 °F (1913)
Min Temperature 35 °F 28 °F 5 °F (1880)
Degree Days  
Heating Degree Days 16    
Moisture  
Dew Point 38 °F    
Average Humidity 77    
Maximum Humidity 93    
Minimum Humidity 48    
Precipitation  
Precipitation 0.02 in - - ()
Sea Level Pressure  
Sea Level Pressure 30.11 in    
Wind  
Wind Speed 7 mph (SSW)    
Max Wind Speed 23 mph    
Max Gust Speed 29 mph    
Visibility 5 miles    
Events      
Averages and records for this station are not official NWS values.
T = Trace of Precipitation, MM = Missing Value Source: NWS Daily Summary

Daily Weather History Graph

Daily Weather History Graph

Search for Another Location

Airport or City:

Trip Planner

Search our weather history database for the weather conditions in past years. The results will help you decide how hot, cold, wet, or windy it might be!

Date:

Astronomy

Nov. 22, 2012 Rise Set
Actual Time 7:31 AM EST 5:08 PM EST
Civil Twilight 7:01 AM EST 5:38 PM EST
Nautical Twilight 6:27 AM EST 6:12 PM EST
Astronomical Twilight 5:54 AM EST 6:45 PM EST
Moon 1:57 PM EST (11/22) 1:46 AM EST (11/22)
Length of Visible Light 10h 37m
Length of Day
9h 36m
Waxing Gibbous, 71% of the Moon is Illuminated
Nov 22
Waxing Gibbous
Nov 28
Full
Dec 6
Last Quarter
Dec 13
New
Dec 20
First Quarter

Hourly Weather History & Observations

Time (EST) Temp. Windchill Dew Point Humidity Pressure Visibility Wind Dir Wind Speed Gust Speed Precip Events Conditions
12:53 AM 37.9 °F 35.5 °F 35.1 °F 89% 30.20 in 3.0 mi SSW 3.5 mph - N/A   Clear
1:17 AM 35.6 °F 29.9 °F 33.8 °F 93% 30.19 in 2.5 mi South 6.9 mph - N/A   Clear
1:53 AM 37.0 °F - 34.0 °F 89% 30.19 in 2.5 mi Calm Calm - N/A   Clear
2:00 AM 39.2 °F 37.0 °F 35.6 °F 87% 30.19 in 3.0 mi SW 3.5 mph - N/A   Clear
2:29 AM 37.4 °F 32.8 °F 33.8 °F 87% 30.18 in 2.5 mi SSW 5.8 mph - N/A   Clear
2:53 AM 36.0 °F 32.1 °F 34.0 °F 93% 30.19 in 2.5 mi SSW 4.6 mph - N/A   Clear
3:53 AM 35.1 °F 31.0 °F 32.0 °F 89% 30.18 in 1.8 mi South 4.6 mph - N/A   Clear
4:01 AM 35.6 °F 30.7 °F 33.8 °F 93% 30.17 in 2.0 mi South 5.8 mph - N/A   Clear
4:38 AM 37.4 °F 32.1 °F 33.8 °F 87% 30.17 in 3.0 mi SSW 6.9 mph - N/A   Clear
4:53 AM 37.0 °F 31.0 °F 34.0 °F 89% 30.17 in 3.0 mi South 8.1 mph - N/A   Clear
5:11 AM 37.4 °F 32.1 °F 33.8 °F 87% 30.16 in 2.5 mi South 6.9 mph - N/A   Clear
5:43 AM 37.4 °F 32.1 °F 33.8 °F 87% 30.16 in 3.0 mi South 6.9 mph - N/A   Clear
5:53 AM 37.9 °F 35.5 °F 34.0 °F 86% 30.18 in 3.0 mi SSW 3.5 mph - N/A   Clear
6:05 AM 37.4 °F 33.8 °F 35.6 °F 93% 30.17 in 2.5 mi SSW 4.6 mph - N/A   Clear
6:51 AM 35.6 °F 30.7 °F 33.8 °F 93% 30.16 in 3.0 mi South 5.8 mph - N/A   Clear
6:53 AM 36.0 °F 31.1 °F 33.1 °F 89% 30.18 in 3.0 mi South 5.8 mph - N/A   Clear
7:34 AM 37.4 °F 32.8 °F 33.8 °F 87% 30.16 in 2.0 mi South 5.8 mph - N/A   Clear
7:53 AM 39.0 °F 34.0 °F 36.0 °F 89% 30.18 in 2.0 mi South 6.9 mph - N/A   Clear
8:49 AM 42.8 °F 38.0 °F 39.2 °F 87% 30.16 in 3.0 mi South 8.1 mph - N/A   Clear
8:53 AM 44.1 °F 39.5 °F 39.0 °F 82% 30.17 in 3.0 mi South 8.1 mph - N/A   Haze
9:53 AM 48.9 °F - 39.9 °F 71% 30.17 in 4.0 mi SSW 12.7 mph - N/A   Haze
10:53 AM 55.0 °F - 42.1 °F 62% 30.15 in 7.0 mi SSW 12.7 mph 19.6 mph N/A   Clear
11:53 AM 59.0 °F - 42.1 °F 53% 30.11 in 8.0 mi SSW 18.4 mph 25.3 mph N/A   Clear
12:53 PM 61.0 °F - 43.0 °F 52% 30.08 in 8.0 mi SSW 19.6 mph 28.8 mph N/A   Clear
1:53 PM 62.1 °F - 42.1 °F 48% 30.06 in 9.0 mi SW 23.0 mph 26.5 mph N/A   Clear
2:53 PM 62.1 °F - 42.1 °F 48% 30.04 in 9.0 mi SW 16.1 mph 26.5 mph N/A   Clear
3:53 PM 61.0 °F - 42.1 °F 50% 30.03 in 9.0 mi SSW 11.5 mph - N/A   Clear
4:53 PM 57.0 °F - 41.0 °F 55% 30.01 in 10.0 mi South 12.7 mph - N/A   Clear
5:53 PM 51.1 °F - 41.0 °F 68% 30.00 in 10.0 mi South 11.5 mph - N/A   Clear
6:53 PM 55.0 °F - 41.0 °F 59% 29.99 in 10.0 mi South 15.0 mph - N/A   Clear
7:53 PM 55.0 °F - 41.0 °F 59% 29.97 in 10.0 mi South 16.1 mph - N/A   Clear
9:53 PM 51.1 °F - 45.0 °F 80% 29.93 in 10.0 mi South 10.4 mph - 0.02 in   Overcast
10:53 PM 52.0 °F - 43.0 °F 71% 29.91 in 10.0 mi SSW 10.4 mph - N/A   Scattered Clouds
11:53 PM 53.1 °F - 43.0 °F 69% 29.88 in 10.0 mi South 13.8 mph - N/A   Mostly Cloudy